This demonstration page uses our WeatherBlox Daily Observations layout. Learn more.

38.89511, -77.03637

Hourly Observations for September 19, 2015

Temp ( °F °C ) Dew Point ( °F °C ) Humidity (%) Winds ( mph kmh ) Pressure ( in mb ) Visibility ( mi km ) Precip ( " mm )
12:52 am 00:52 Clear 70 21.1 65 18.3 84 84 SSW 3 6 29.99 1016 10 16.0934 0 0
1:52 am 01:52 Clear 70 21.1 66 18.9 87 87 S 3 6 29.98 1015 10 16.0934 0 0
2:12 am 02:12 Mostly Clear 70 21 66 19 88 88 Calm 30 1016 10 16.0934 0 0
2:52 am 02:52 Partly Cloudy 69 20.6 66 18.9 90 90 SE 5 7 29.98 1015 10 16.0934 0 0
3:52 am 03:52 Partly Cloudy 68 20 66 18.9 93 93 SSW 5 7 29.96 1015 10 16.0934 0 0
4:52 am 04:52 Partly Cloudy 67 19.4 65 18.3 93 93 Calm 29.96 1015 10 16.0934 0 0
5:10 am 05:10 Partly Cloudy 66 19 64 18 94 94 WSW 3 6 29.97 1015 10 16.0934 0 0
5:15 am 05:15 Mostly Cloudy 66 19 64 18 94 94 SW 3 6 29.97 1015 10 16.0934 0 0
5:29 am 05:29 Mostly Cloudy 66 19 66 19 100 100 S 3 6 29.97 1015 10 16.0934 0 0
5:52 am 05:52 Cloudy 68 20 67 19.4 96 96 S 7 11 29.96 1015 8 12.87472 0 0
6:04 am 06:04 Cloudy with Mist and Fog 68 20 66 19 94 94 S 3 6 29.97 1015 5 8.0467 0 0
6:52 am 06:52 Cloudy with Mist and Fog 68 20 67 19.4 96 96 S 7 11 29.96 1015 4 6.43736 0 0
7:52 am 07:52 Cloudy with Mist and Fog 69 20.6 68 20 96 96 SSW 5 7 29.98 1015 4 6.43736 0 0
8:30 am 08:30 Cloudy 70 21 68 20 94 94 S 7 11 29.97 1015 7 11.26538 0 0
8:52 am 08:52 Cloudy 70 21.1 67 19.4 90 90 S 9 15 29.97 1015 8 12.87472 0 0
9:34 am 09:34 Cloudy 72 22 68 20 88 88 S 10 17 29.97 1015 10 16.0934 0 0
9:52 am 09:52 Mostly Cloudy 73 22.8 68 20 84 84 S 9 15 29.97 1015 10 16.0934 0 0
10:06 am 10:06 Mostly Cloudy 73 23 68 20 83 83 S 9 15 29.97 1015 10 16.0934 0 0
10:17 am 10:17 Mostly Cloudy 73 23 68 20 83 83 SSE 8 13 29.97 1015 10 16.0934 0 0
10:52 am 10:52 Mostly Cloudy 76 24.4 68 20 77 77 SSE 6 9 29.97 1015 10 16.0934 0 0
11:52 am 11:52 Partly Cloudy 80 26.7 68 20 67 67 SSE 8 13 29.96 1014 10 16.0934 0 0
12:52 pm 12:52 Mostly Cloudy 83 28.3 66 18.9 57 57 S 8 13 29.94 1014 10 16.0934 0 0
1:52 pm 13:52 Partly Cloudy 85 29.4 64 17.8 50 50 S 9 15 29.92 1013 10 16.0934 0 0
2:52 pm 14:52 Partly Cloudy 86 30 60 15.6 42 42 S 12 19 29.9 1013 10 16.0934 0 0
3:52 pm 15:52 Partly Cloudy 84 28.9 63 17.2 49 49 S 10 17 29.89 1012 10 16.0934 0 0
4:52 pm 16:52 Partly Cloudy 85 29.4 64 17.8 50 50 S 10 17 29.88 1012 10 16.0934 0 0
5:52 pm 17:52 Partly Cloudy 84 28.9 64 17.8 51 51 S 8 13 29.87 1011 10 16.0934 0 0
6:52 pm 18:52 Mostly Sunny 81 27.2 65 18.3 58 58 S 9 15 29.86 1011 10 16.0934 0 0
7:52 pm 19:52 Partly Cloudy 78 25.6 68 20 71 71 S 7 11 29.86 1011 10 16.0934 0 0
8:52 pm 20:52 Partly Cloudy 77 25 66 18.9 69 69 S 10 17 29.88 1012 10 16.0934 0 0
9:52 pm 21:52 Mostly Clear 75 23.9 67 19.4 76 76 SSW 9 15 29.89 1012 10 16.0934 0 0
10:52 pm 22:52 Mostly Cloudy 75 23.9 68 20 79 79 S 9 15 29.89 1012 10 16.0934 0 0
11:52 pm 23:52 Mostly Cloudy 74 23.3 68 20 82 82 S 9 15 29.88 1012 10 16.0934 0 0

Powered by AerisWeather